Orbital Elements at Epoch 2459200.5 (2020-Dec-17.0) TDB
Reference: JPL 24 (heliocentric ecliptic J2000)
Element | Value | Uncertainty (1-sigma) | Units |
e | .1663198935042162 | 4.4599e-08 | |
a | 2.185680238798538 | 6.7674e-09 | au |
q | 1.822158134247295 | 9.7744e-08 | au |
i | 4.380937006037684 | 3.628e-06 | deg |
node | 298.8191576415109 | 6.0949e-05 | deg |
peri | 86.34343134136162 | 6.1882e-05 | deg |
M | 237.7553337598866 | 1.1835e-05 | deg |
tp | 2459601.279762751189 (2022-Jan-21.77976275) | 3.9631e-05 | TDB |
period | 1180.261839048514 3.23 | 5.4815e-06 1.501e-08 | d yr |
n | .3050170632393059 | 1.4166e-09 | deg/d |
Q | 2.549202343349781 | 7.8929e-09 | au |
|
| | Orbit Determination Parameters
Additional Information
|